Rbgn^[z[y[W
メイン
   新天体発見情報
     Comet P/2010 VH95 (Catalina)
投稿するにはまず登録を

スレッド表示 | 新しいものから 前のトピック | 次のトピック | 下へ
投稿者 スレッド
佐藤裕久
投稿日時: 2023-4-13 0:58
モデレータ
登録日: 2005-6-12
居住地: 日本
投稿: 2524
オンライン
Comet P/2010 VH95 (Catalina)

P. Veres (小惑星センター)によると、小惑星地球衝突最終警報システム(ATLAS)調査プログラム
のコースに0.5-m f/2 Schmidt反射望遠鏡で得た小惑星 2010 VH95 (MPEC 2010-X41; MPS 355738
参照)のアーカイブCCDから彗星活動を見つけた。
Veresが最初に確認したのは、2023年3月14日、チリ Rio Hurtadoで得たATLAS画像で、p.a. 282°
に、まっすぐな15" の尾があった。光度は16.3-17.6等であった。

彗星機能は次のとおり、

OC   Date        Reporter           Coma    Tail    PA          Exposures
T05  2023-01-16  P. Veres                    12"     70
T05  2023-01-24  P. Veres                    12"     75
M22  2023-02-28  P. Veres                    12"     75
M22  2023-03-09  P. Veres                    13"     78
M22  2023-03-12  P. Veres                    14"     78
T05  2023-03-18  P. Veres                    12"     78

発見位置は次のとおり、

     2010 UT             R.A. (2000) Decl.       Mag.
     Nov.  7.48513    8 13 06.67   +22 54 29.0   19.2
           7.49205    8 13 07.46   +22 54 21.9   19.4
           7.49902    8 13 08.25   +22 54 15.0   19.2
           7.50595    8 13 08.94   +22 54 07.6   19.4
          10.38862    8 18 34.77   +22 03 51.8   19.6
          10.39509    8 18 35.46   +22 03 45.3   19.2
          10.40152    8 18 36.14   +22 03 38.6   19.2
          10.40794    8 18 36.86   +22 03 31.7   19.3

MPCの楕円軌道要素、位置推算表は次のとおり、

Orbital elements:
    P/2010 VH95 (Catalina)                                                      
Epoch 2023 Feb. 25.0 TT = JDT 2460000.5                                         
T 2023 Feb. 21.37996 TT                                 Rudenko                 
q   1.3681610            (2000.0)            P               Q                  
n   0.16911647     Peri.  205.17750     -0.20770294     -0.97059815             
a   3.2385115      Node   257.00031     +0.91727714     -0.15005668             
e   0.5775340      Incl.    7.17208     +0.33979719     -0.18820793             
P   5.83                                                                        
From 948 observations 1997 Dec. 28-2023 Mar. 26, mean residual 0".6.            
                                                                                
Ephemeris:
Date    TT    R. A. (2000) Decl.     Delta      r    Elong.  Phase   m1
2023 02 25    03 50 15.3 +15 42 49   1.0729  1.3688    83.0    45.9  17.0
...
2023 03 12    04 41 04.9 +16 39 05   1.1460  1.3838    80.3    45.0  17.2
...
2023 03 20    05 08 58.7 +16 54 03   1.1922  1.3999    79.0    44.3  17.3
...
2023 03 26    05 30 01.4 +16 57 06   1.2307  1.4154    78.1    43.6  17.5
2023 03 27    05 33 31.8 +16 56 53   1.2374  1.4183    78.0    43.5  17.5
2023 03 28    05 37 02.1 +16 56 28   1.2442  1.4212    77.8    43.3  17.5
...
2023 04 03    05 57 59.6 +16 49 29   1.2872  1.4404    76.9    42.5  17.6
...
2023 04 11    06 25 35.4 +16 28 26   1.3502  1.4699    75.7    41.3  17.8
...
2023 04 26    07 15 34.4 +15 14 57   1.4858  1.5360    73.3    38.8  18.2

(MPEC 2023-F167、CBET 5240)

スレッド表示 | 新しいものから 前のトピック | 次のトピック | トップ

投稿するにはまず登録を
 
© 1999 Tsutomu Seki.